Terminal Aerodrome Forecast
Issued by NWS Miami, FL

Home | Current Version | Previous Version | Text Only | Print | Product List | Glossary On
Versions: 1 2 3 4 5 6 7 8 9 10 11 12 13 14 15 16 17 18 19 20 21 22 23 24 25 26 27 28 29
000
FTUS42 KMFL 182335
TAFAPF
TAF
KAPF 182335Z 1900/1924 17010G15KT P6SM FEW080 BKN250
     FM190400 17010KT P6SM VCTS SCT025CB OVC040
     FM191000 20007KT P6SM VCSH SCT025 OVC035
     FM191400 25014G21KT P6SM SCT025 BKN050=

USA.gov is the U.S. government's official web portal to all federal, state and local government web resources and services.